Cairns, Australia

9:41 AM AEST on August 18, 2017 (GMT +1000)
Cairns International

Weather History for YBCS - January, 2011

Change the Weather History Date:

Thursday, January 6, 2011

  Actual Average Record
Temperature  
Mean Temperature 81 °F -  
Max Temperature 87 °F 89 °F 95 °F (2016)
Min Temperature 75 °F 74 °F 68 °F (2012)
Cooling Degree Days 16    
Growing Degree Days 31 (Base 50)    
Moisture  
Dew Point 75 °F    
Average Humidity 81    
Maximum Humidity 100    
Minimum Humidity 53    
Precipitation  
Precipitation 0.04 in 0.53 in - ()
Sea Level Pressure  
Sea Level Pressure 29.65 in    
Wind  
Wind Speed 4 mph ()    
Max Wind Speed 14 mph    
Max Gust Speed -    
Visibility 6.9 miles    
Events Rain , Thunderstorm    
Averages and records for this station are not official NWS values.
T = Trace of Precipitation, MM = Missing Value Source: Averaged Metar Reports

Daily Weather History Graph

Daily Weather History Graph

Search for Another Location

Airport or City:

Trip Planner

Search our weather history database for the weather conditions in past years. The results will help you decide how hot, cold, wet, or windy it might be!

Date:

Astronomy

Jan. 06, 2011 Rise Set
Actual Time 5:49 AM AEST 6:55 PM AEST
Civil Twilight 5:25 AM AEST 7:19 PM AEST
Nautical Twilight 4:57 AM AEST 7:47 PM AEST
Astronomical Twilight 4:28 AM AEST 8:16 PM AEST
Moon 7:12 AM AEST (1/6) 8:16 PM AEST (1/6)
Length of Visible Light 13h 53m
Length of Day
13h 05m
Waxing Crescent, 3% of the Moon is Illuminated
Jan 6
Waxing Crescent
Jan 12
First Quarter
Jan 20
Full
Jan 26
Last Quarter
Feb 3
New

Hourly Weather History & Observations

Time (AEST) Temp. Heat Index Dew Point Humidity Pressure Visibility Wind Dir Wind Speed Gust Speed Precip Events Conditions
12:00 AM 78 °F - 76 °F 91% 29.70 in 12 mi West 2.3 mph - -   Partly Cloudy
12:00 AM 78.8 °F - 75.2 °F 89% 29.68 in 6.2 mi West 2.3 mph - N/A   Mostly Cloudy
12:30 AM 78.8 °F - 75.2 °F 89% 29.68 in 6.2 mi SSE 4.6 mph - N/A   Mostly Cloudy
1:00 AM 78 °F - 76 °F 91% 29.68 in - West 2.3 mph - -  
1:00 AM 78.8 °F - 75.2 °F 89% 29.65 in 6.2 mi West 2.3 mph - N/A   Mostly Cloudy
1:30 AM 77.0 °F - 75.2 °F 94% 29.65 in 6.2 mi WNW 2.3 mph - N/A   Scattered Clouds
2:00 AM 77.0 °F - 75.2 °F 94% 29.65 in 6.2 mi Calm Calm - N/A   Partly Cloudy
2:30 AM 77.0 °F - 75.2 °F 94% 29.65 in - Calm Calm - N/A   Clear
3:00 AM 76 °F - 74 °F 94% 29.65 in 16 mi West 4.6 mph - -   Partly Cloudy
3:00 AM 77.0 °F - 75.2 °F 94% 29.65 in 6.2 mi West 4.6 mph - N/A   Partly Cloudy
3:30 AM 75.2 °F - 75.2 °F 100% 29.62 in - SW 2.3 mph - N/A   Clear
4:00 AM 76 °F - 74 °F 93% 29.65 in - Calm Calm - -  
4:00 AM 77.0 °F - 75.2 °F 94% 29.65 in - Calm Calm - N/A   Clear
5:00 AM 77.0 °F - 75.2 °F 94% 29.65 in 6.2 mi SSE 3.5 mph - N/A   Scattered Clouds
5:30 AM 77.0 °F - 75.2 °F 94% 29.65 in 6.2 mi SSE 6.9 mph - N/A   Mostly Cloudy
6:00 AM 76 °F - 74 °F 91% 29.66 in 12 mi Calm Calm - -   Partly Cloudy
6:00 AM 77.0 °F - 73.4 °F 89% 29.65 in 6.2 mi Calm Calm - N/A   Mostly Cloudy
6:30 AM 77.0 °F - 75.2 °F 94% 29.65 in 6.2 mi Calm Calm - N/A   Mostly Cloudy
7:00 AM 80 °F - 74 °F 78% 29.68 in - Calm Calm - -  
7:00 AM 80.6 °F 86.2 °F 75.2 °F 84% 29.65 in 6.2 mi Calm Calm - N/A   Scattered Clouds
7:30 AM 82.4 °F 88.2 °F 73.4 °F 74% 29.65 in 6.2 mi South 4.6 mph - N/A   Scattered Clouds
8:00 AM 82.4 °F 89.5 °F 75.2 °F 79% 29.68 in 6.2 mi SSE 5.8 mph - N/A   Scattered Clouds
8:30 AM 84.2 °F 90.9 °F 73.4 °F 70% 29.68 in 6.2 mi SE 5.8 mph - N/A   Scattered Clouds
9:00 AM 85 °F - 73 °F 60% 29.70 in 12 mi NE 4.6 mph - -   Partly Cloudy
9:00 AM 84.2 °F 90.9 °F 73.4 °F 70% 29.68 in 6.2 mi NE 4.6 mph - N/A   Scattered Clouds
9:30 AM 86.0 °F 95.1 °F 75.2 °F 70% 29.68 in 6.2 mi NE 5.8 mph - N/A   Scattered Clouds
10:00 AM 86 °F - 75 °F 63% 29.71 in - NNE 10.4 mph - -  
10:00 AM 86.0 °F 95.1 °F 75.2 °F 70% 29.68 in 6.2 mi NNE 10.4 mph - N/A   Mostly Cloudy
10:30 AM 86.0 °F 96.9 °F 77.0 °F 74% 29.68 in 6.2 mi North 10.4 mph - N/A   Partly Cloudy
11:00 AM 86.0 °F 96.9 °F 77.0 °F 74% 29.68 in 6.2 mi North 12.7 mph - N/A Rain Light Rain Showers
11:30 AM 87.8 °F 97.6 °F 75.2 °F 66% 29.65 in 6.2 mi North 10.4 mph - N/A   Mostly Cloudy
12:00 PM 87 °F - 72 °F 53% 29.67 in 12 mi North 10.4 mph - - Rain Light Rain Showers
12:00 PM 87.8 °F 93.8 °F 71.6 °F 58% 29.65 in 6.2 mi North 10.4 mph - N/A   Scattered Clouds
12:30 PM 86.0 °F 93.4 °F 73.4 °F 66% 29.65 in 6.2 mi North 10.4 mph - N/A   Mostly Cloudy
1:00 PM 87 °F - 75 °F 61% 29.65 in - North 9.2 mph - -  
1:00 PM 87.8 °F 97.6 °F 75.2 °F 66% 29.65 in 6.2 mi North 9.2 mph - N/A   Partly Cloudy
1:30 PM 84.2 °F 94.1 °F 77.0 °F 79% 29.65 in 6.2 mi North 9.2 mph - N/A Rain Light Rain Showers
2:00 PM 84.2 °F 92.3 °F 75.2 °F 74% 29.62 in 6.2 mi NE 5.8 mph - N/A   Mostly Cloudy
2:16 PM 84.2 °F 92.3 °F 75.2 °F 74% 29.62 in 6.2 mi ENE 4.6 mph - N/A Thunderstorm Mostly Cloudy
2:30 PM 82.4 °F 89.5 °F 75.2 °F 79% 29.62 in 5.6 mi SSE 13.8 mph - N/A Thunderstorm Thunderstorm
3:00 PM 81 °F - 73 °F 71% 29.61 in 9 mi South 10.4 mph - - Rain Light Rain Showers
3:00 PM 80.6 °F 85.4 °F 73.4 °F 79% 29.59 in 3.1 mi South 10.4 mph - N/A Rain Rain Showers
3:14 PM 80.6 °F 86.2 °F 75.2 °F 84% 29.59 in 4.3 mi South 5.8 mph - N/A Rain Light Rain Showers
3:30 PM 80.6 °F 87.1 °F 77.0 °F 89% 29.59 in 6.2 mi WNW 5.8 mph - N/A Rain Light Rain Showers
4:00 PM 82 °F - 75 °F 75% 29.62 in - WSW 2.3 mph - -  
4:00 PM 82.4 °F 89.5 °F 75.2 °F 79% 29.59 in 6.2 mi WSW 2.3 mph - N/A   Partly Cloudy
4:30 PM 80.6 °F 85.4 °F 73.4 °F 79% 29.59 in 6.2 mi WSW 6.9 mph - N/A   Partly Cloudy
5:00 PM 80.6 °F 85.4 °F 73.4 °F 79% 29.59 in 6.2 mi West 8.1 mph - N/A   Mostly Cloudy
5:30 PM 82.4 °F 88.2 °F 73.4 °F 74% 29.59 in 5.6 mi West 4.6 mph - N/A Rain Light Rain Showers
6:00 PM 80.6 °F 85.4 °F 73.4 °F 79% 29.62 in - West 4.6 mph - N/A   Clear
6:30 PM 82.4 °F 88.2 °F 73.4 °F 74% 29.62 in - WSW 2.3 mph - N/A   Clear
7:00 PM 80.6 °F 85.4 °F 73.4 °F 79% 29.62 in 6.2 mi WNW 5.8 mph - N/A   Mostly Cloudy
7:30 PM 80.6 °F 85.4 °F 73.4 °F 79% 29.62 in 6.2 mi West 5.8 mph - N/A   Mostly Cloudy
8:00 PM 78.8 °F - 75.2 °F 89% 29.62 in 6.2 mi NNW 5.8 mph - N/A   Mostly Cloudy
8:30 PM 80.6 °F 85.4 °F 73.4 °F 79% 29.62 in 6.2 mi West 3.5 mph - N/A   Scattered Clouds
9:00 PM 79 °F - 75 °F 84% 29.64 in 16 mi SSE 3.5 mph - -   Partly Cloudy
9:00 PM 78.8 °F - 75.2 °F 89% 29.62 in 6.2 mi SSE 3.5 mph - N/A   Mostly Cloudy
9:30 PM 78.8 °F - 75.2 °F 89% 29.65 in 6.2 mi South 8.1 mph - N/A   Mostly Cloudy
10:00 PM 79 °F - 75 °F 85% 29.66 in - WNW 5.8 mph - -  
10:00 PM 78.8 °F - 75.2 °F 89% 29.65 in 6.2 mi WNW 5.8 mph - N/A   Mostly Cloudy
10:30 PM 78.8 °F - 75.2 °F 89% 29.65 in 6.2 mi North 3.5 mph - N/A   Mostly Cloudy
10:41 PM 78.8 °F - 75.2 °F 89% 29.65 in 3.7 mi West 3.5 mph - N/A Rain Light Rain Showers
11:00 PM 78.8 °F - 75.2 °F 89% 29.68 in 5.6 mi NW 6.9 mph - N/A   Mostly Cloudy
11:30 PM 78.8 °F - 75.2 °F 89% 29.65 in - NW 5.8 mph - N/A   Clear